Weather History for KFSI - November, 2013

Change the Weather History Date:

Saturday, November 2, 2013

  Actual Average Record
Temperature  
Mean Temperature 54 °F -  
Max Temperature 65 °F 66 °F 84 °F (2001)
Min Temperature 44 °F 42 °F 23 °F (1966)
Degree Days  
Heating Degree Days 10    
Growing Degree Days 4 (Base 50)    
Moisture  
Dew Point 32 °F    
Average Humidity 43    
Maximum Humidity 62    
Minimum Humidity 26    
Precipitation  
Precipitation 0.00 in - - ()
Sea Level Pressure  
Sea Level Pressure 30.22 in    
Wind  
Wind Speed 6 mph (NE)    
Max Wind Speed 13 mph    
Max Gust Speed 21 mph    
Visibility 7 miles    
Events      
Averages and records for this station are not official NWS values.
T = Trace of Precipitation, MM = Missing Value Source: NWS Daily Summary

Daily Weather History Graph

Daily Weather History Graph

Search for Another Location

Airport or City:

Trip Planner

Search our weather history database for the weather conditions in past years. The results will help you decide how hot, cold, wet, or windy it might be!

Date:

Astronomy

Nov. 02, 2013 Rise Set
Actual Time 7:55 AM CDT 6:38 PM CDT
Civil Twilight 7:29 AM CDT 7:04 PM CDT
Nautical Twilight 6:59 AM CDT 7:34 PM CDT
Astronomical Twilight 6:29 AM CDT 8:04 PM CDT
Moon 6:55 AM CDT (11/2) 6:10 PM CDT (11/2)
Length of Visible Light 11h 35m
Length of Day
10h 43m
Waning Crescent, 1% of the Moon is Illuminated
Nov 2
Waning Crescent
Nov 3
New
Nov 9
First Quarter
Nov 17
Full
Nov 25
Last Quarter

Hourly Weather History & Observations

Time (CDT) Temp. Windchill Dew Point Humidity Pressure Visibility Wind Dir Wind Speed Gust Speed Precip Events Conditions
12:58 AM 53.1 °F - 35.1 °F 50% 30.14 in 10.0 mi NW 8.1 mph - N/A   Clear
1:58 AM 53.2 °F - 33.1 °F 46% 30.15 in 10.0 mi NNW 9.2 mph - N/A   Clear
2:58 AM 51.3 °F - 32.2 °F 48% 30.17 in 10.0 mi NNW 8.1 mph - N/A   Clear
3:58 AM 50.7 °F - 31.5 °F 48% 30.18 in 10.0 mi NNW 8.1 mph - N/A   Clear
4:58 AM 48.7 °F - 31.6 °F 52% 30.20 in 10.0 mi NNW 6.9 mph - N/A   Clear
5:58 AM 47.1 °F - 32.4 °F 57% 30.23 in 10.0 mi North 9.2 mph - N/A   Clear
6:58 AM 45.9 °F 42.3 °F 32.2 °F 59% 30.26 in 10.0 mi NNW 6.9 mph - N/A   Clear
7:58 AM 44.8 °F 41.6 °F 32.0 °F 61% 30.28 in 10.0 mi NW 5.8 mph - N/A   Clear
8:58 AM 48.7 °F - 34.0 °F 57% 30.31 in 10.0 mi Calm Calm - N/A   Clear
9:58 AM 53.8 °F - 33.1 °F 45% 30.33 in 10.0 mi North 6.9 mph - N/A   Clear
10:58 AM 57.0 °F - 33.6 °F 41% 30.33 in 10.0 mi Variable 5.8 mph - N/A   Clear
11:58 AM 60.8 °F - 28.9 °F 30% 30.33 in 10.0 mi NNE 12.7 mph - N/A   Clear
12:58 PM 62.1 °F - 29.1 °F 29% 30.31 in 10.0 mi Variable 6.9 mph 17.3 mph N/A   Clear
1:58 PM 63.7 °F - 29.8 °F 28% 30.27 in 10.0 mi NNE 8.1 mph 20.7 mph N/A   Clear
2:58 PM 65.1 °F - 29.1 °F 26% 30.24 in 10.0 mi Variable 5.8 mph - N/A   Clear
3:58 PM 64.4 °F - 29.3 °F 27% 30.22 in 10.0 mi NNE 6.9 mph - N/A   Clear
4:58 PM 64.9 °F - 29.5 °F 26% 30.21 in 10.0 mi Calm Calm - N/A   Clear
5:58 PM 63.5 °F - 29.5 °F 28% 30.20 in 10.0 mi ENE 1.2 mph - N/A   Clear
6:28 PM 60.8 °F - 32.0 °F 34% 30.19 in 1.2 mi East 3.5 mph - N/A   Haze
6:33 PM 60.8 °F - 32.0 °F 34% 30.19 in 0.8 mi East 2.3 mph - N/A   Haze
6:58 PM 59.4 °F - 31.5 °F 35% 30.20 in 0.8 mi East 2.3 mph - N/A   Haze
7:03 PM 59.0 °F - 32.0 °F 36% 30.19 in 1.0 mi East 3.5 mph - N/A   Haze
7:08 PM 59.0 °F - 32.0 °F 36% 30.19 in 2.0 mi East 2.3 mph - N/A   Haze
7:18 PM 55.4 °F - 32.0 °F 41% 30.19 in 4.0 mi Calm Calm - N/A   Haze
7:38 PM 57.2 °F - 32.0 °F 38% 30.20 in 2.5 mi East 4.6 mph - N/A   Haze
7:43 PM 55.4 °F - 32.0 °F 41% 30.20 in 3.0 mi East 1.2 mph - N/A   Haze
7:58 PM 54.0 °F - 34.7 °F 48% 30.20 in 6.0 mi East 2.3 mph - N/A   Haze
8:58 PM 50.5 °F - 34.7 °F 55% 30.20 in 6.0 mi SE 3.5 mph - N/A   Haze
9:58 PM 48.0 °F - 34.3 °F 59% 30.19 in 6.0 mi SE 4.6 mph - N/A   Haze
10:58 PM 47.8 °F - 33.8 °F 58% 30.19 in 7.0 mi SE 4.6 mph - N/A   Clear
11:58 PM 46.6 °F - 34.0 °F 62% 30.18 in 8.0 mi SSE 5.8 mph - N/A   Clear